[[{"header":{"parameterUnit":"m.s-1","parameterCategory":2,"la1":30.2991,"la2":30.254,"lo1":-89.0895,"lo2":-89.0444,"dy":0.0017,"dx":0.0017,"nx":28,"ny":28,"refTime":"2023-10-22T09:00:00:Z","depth":"0","parameterNumber":2,"parameterNumberName":"U-component_of_CURRENTS"},"data":[0,0,0,0,0,0,0,0,0,0,0,0,0,0,0,0,0,0,0,0,0,0,0,0,0,0,0,0,0,0,0,0,0,0,0,0,0,0,0,0,0,0,0,0,0,0,0,0,0,0,0,0,0,0,0,0,0,0,-0.1417,-0.1417,0,-0.1379,-0.1379,-0.1378,-0.1384,-0.1385,-0.1386,-0.1386,-0.1298,-0.1295,-0.1292,0,0,0,0,0,0,0,0,0,0,0,0,0,-0.1505,-0.1504,-0.1417,-0.1417,-0.1416,-0.1379,-0.1379,-0.1378,-0.1384,-0.1385,-0.1386,-0.1386,-0.1299,-0.1295,-0.1292,0,0,0,0,0,0,0,0,0,0,0,0,0,-0.1468,-0.1503,-0.1417,-0.1414,-0.1413,-0.1379,-0.1379,-0.1378,-0.1384,-0.1385,-0.1386,-0.1387,-0.13,-0.1296,-0.1291,-0.1247,0,0,-0.1278,-0.1276,0,0,0,0,0,0,0,0,-0.147,-0.1465,-0.1415,-0.1414,-0.1413,-0.1387,-0.1377,-0.1331,-0.1384,-0.1396,-0.1386,-0.1387,-0.1322,-0.1316,-0.1308,-0.1243,-0.1239,-0.1278,-0.1275,-0.1273,-0.1272,0,0,0,0,0,0,0,-0.1472,-0.1466,-0.1403,-0.1414,-0.1413,-0.1418,-0.1414,-0.1369,-0.1354,-0.1395,-0.1395,-0.1389,-0.1321,-0.1313,-0.1306,-0.1238,-0.1278,-0.1274,-0.1271,-0.127,-0.1154,-0.1154,0,0,0,0,0,0,-0.1474,-0.1468,-0.1404,-0.1402,-0.1444,-0.1416,-0.1411,-0.1395,-0.1356,-0.1351,-0.1389,-0.139,-0.132,-0.1311,-0.1303,-0.1254,-0.1273,-0.1269,-0.1267,-0.1155,-0.1154,-0.1154,0,0,0,0,0,0,-0.1476,-0.1468,-0.1405,-0.1434,-0.1427,-0.1413,-0.1395,-0.1394,-0.1391,-0.1351,-0.1346,-0.1389,-0.132,-0.1309,-0.1264,-0.1251,-0.1267,-0.1263,-0.1155,-0.1155,-0.1154,-0.1152,0,0,0,0,0,0,-0.1478,-0.1468,-0.1456,-0.1434,-0.1425,-0.1386,-0.1394,-0.1392,-0.1386,-0.1387,-0.1349,-0.1342,-0.132,-0.1271,-0.126,-0.1245,-0.126,-0.1156,-0.1155,-0.1154,-0.1153,-0.1151,-0.115,0,0,0,0,0,-0.1481,-0.1462,-0.1456,-0.1448,-0.1409,-0.1385,-0.1381,-0.1375,-0.1385,-0.1378,-0.1354,-0.1343,-0.1258,-0.1266,-0.1254,-0.1237,-0.1156,-0.1155,-0.1154,-0.1153,-0.1152,-0.115,0,0,0,0,0,0,-0.149,-0.146,-0.1453,-0.1424,-0.1406,-0.1386,-0.1376,-0.1376,-0.1353,-0.1355,-0.1326,-0.1316,-0.1274,-0.1255,-0.1265,-0.1204,-0.1209,-0.1206,-0.1213,-0.1211,-0.121,-0.1174,-0.1256,0,0,0,0,0,-0.1485,-0.1464,-0.1439,-0.1415,-0.1407,-0.1393,-0.1383,-0.1381,-0.1358,-0.1351,-0.132,-0.1291,-0.1258,-0.1236,-0.1202,-0.1159,-0.1039,-0.1144,-0.1143,-0.1142,-0.1105,-0.0962,-0.0943,-0.115,-0.115,-0.115,0,0,-0.148,-0.1462,-0.1448,-0.1416,-0.1402,-0.1371,-0.1389,-0.1375,-0.1348,-0.1341,-0.1292,-0.128,-0.1246,-0.1204,-0.1184,-0.1186,-0.1002,-0.1141,-0.114,-0.1103,-0.0958,-0.0938,-0.0919,-0.115,-0.115,-0.115,0,0,-0.1455,-0.1444,-0.1415,-0.14,-0.1379,-0.1364,-0.1361,-0.1338,-0.1331,-0.1289,-0.1281,-0.1259,-0.1203,-0.1177,-0.1158,-0.1127,-0.1003,-0.1127,-0.1084,-0.0946,-0.0927,-0.0908,-0.0643,-0.0601,-0.1125,-0.1125,-0.1125,0,-0.145,-0.1388,-0.1404,-0.1373,-0.1333,-0.1358,-0.1301,-0.1307,-0.1273,-0.1227,-0.1272,-0.1169,-0.1185,-0.1096,-0.1119,-0.1121,-0.0971,-0.1095,-0.094,-0.092,-0.0901,-0.0634,-0.0588,-0.1125,-0.1125,-0.1125,-0.1125,0,-0.139,-0.1344,-0.1327,-0.1281,-0.126,-0.1215,-0.1215,-0.1191,-0.1189,-0.1166,-0.109,-0.1108,-0.1017,-0.1066,-0.1096,-0.0978,-0.0881,-0.0954,-0.0937,-0.0879,-0.0601,-0.0553,-0.1124,-0.1124,-0.1125,-0.1125,0,0,-0.1327,-0.1286,-0.1271,-0.1195,-0.1189,-0.1133,-0.1118,-0.1041,-0.0936,-0.0989,-0.0826,-0.0908,-0.089,-0.0869,-0.0898,-0.0853,-0.0627,-0.0857,-0.085,-0.0575,-0.0185,0.0042,0.0118,-0.0665,-0.0659,-0.0654,-0.0011,0,-0.1242,-0.1139,-0.1152,-0.1018,-0.0936,-0.0952,-0.089,-0.085,-0.081,-0.0671,-0.0733,-0.0596,-0.082,-0.0725,-0.0738,-0.0623,-0.0512,-0.0785,-0.0295,-0.0277,-0.0073,0.0173,0.0217,0.0806,0.0037,0.0045,0.0051,0,-0.1131,-0.1063,-0.0927,-0.0788,-0.075,-0.0685,-0.0509,-0.0456,-0.0356,-0.0309,-0.0263,-0.0255,-0.0176,-0.0376,-0.0169,-0.0315,-0.0242,-0.0206,-0.018,0.0064,0.0037,0.0605,0.0923,0.0873,0.0126,0.012,0.0115,0,-0.097,-0.0872,-0.073,-0.0694,-0.0583,-0.0492,-0.0415,-0.0318,-0.0191,-0.0013,0.0139,0.0179,0.0328,0.0333,0.0348,0.0152,0.0638,0.04,0.0693,0.0715,0.087,0.0895,0.1208,0.0586,0.0585,0.0583,0.0581,0,-0.0815,-0.0682,-0.0626,-0.0525,-0.0294,-0.0296,-0.0029,0.0042,0.021,0.0417,0.0379,0.0573,0.0502,0.0707,0.0619,0.0911,0.0897,0.0828,0.0915,0.0882,0.0899,0.0949,0.0822,0.0607,0.0602,0.0597,0.0593,0,-0.0594,-0.0604,-0.0381,-0.0245,-0.0196,0.0004,0.0213,0.0407,0.0526,0.0814,0.0905,0.1032,0.1302,0.1312,0.1477,0.1399,0.1576,0.1651,0.1695,0.1773,0.1902,0.1772,0.2062,0.2066,0.2115,0.2125,0.2133,0,-0.0447,-0.0315,-0.0126,0.0005,0.0093,0.0325,0.0486,0.059,0.0765,0.1063,0.1228,0.1577,0.1739,0.2183,0.2216,0.2394,0.206,0.254,0.2091,0.2062,0.1978,0.1645,0.1594,0.2348,0.2357,0.2365,0.2371,0,-0.0062,-0.0006,0.0165,0.0384,0.0567,0.0742,0.0943,0.1078,0.1207,0.1398,0.1653,0.1813,0.2275,0.2491,0.2825,0.2842,0.2459,0.2704,0.2631,0.2216,0.1919,0.1914,0.1841,0.2439,0.2432,0.2427,0.2423,0.242,0.0307,0.0482,0.066,0.0863,0.0989,0.1097,0.1226,0.1355,0.155,0.1736,0.1884,0.2096,0.2484,0.292,0.3091,0.3348,0.298,0.3133,0.3014,0.2708,0.258,0.2751,0.3423,0.3421,0.3421,0.342,0.3419,0,0.0855,0.093,0.1125,0.1288,0.1373,0.1353,0.149,0.1544,0.1665,0.1847,0.1996,0.233,0.2737,0.3081,0.3498,0.3554,0.3303,0.349,0.2952,0.2909,0.3106,0.2978,0.3634,0.3634,0.3634,0.3634,0.3634,0.3634,0.1177,0.1429,0.1418,0.1594,0.1622,0.1683,0.1699,0.1724,0.18,0.1949,0.2083,0.2203,0.2514,0.3102,0.3468,0.3525,0.3259,0.3217,0.3117,0.3148,0.3096,0.3047,0.2899,0.3527,0.3527,0.2805,0.28,0.2796]},{"header":{"parameterUnit":"m.s-1","parameterCategory":2,"la1":30.2991,"la2":30.254,"lo1":-89.0895,"lo2":-89.0444,"dy":0.0017,"dx":0.0017,"nx":28,"ny":28,"refTime":"2023-10-22T09:00:00:Z","depth":"0","parameterNumber":3,"parameterNumberName":"V-component_of_CURRENTS"},"data":[0,0,0,0,0,0,0,0,0,0,0,0,0,0,0,0,0,0,0,0,0,0,0,0,0,0,0,0,0,0,0,0,0,0,0,0,0,0,0,0,0,0,0,0,0,0,0,0,0,0,0,0,0,0,0,0,0,0,-0.1063,-0.1063,0,-0.1137,-0.1138,-0.1138,-0.1179,-0.1179,-0.1179,-0.1179,-0.1213,-0.1214,-0.1214,0,0,0,0,0,0,0,0,0,0,0,0,0,-0.095,-0.0952,-0.1063,-0.1064,-0.1065,-0.1137,-0.1138,-0.1139,-0.1179,-0.1179,-0.1179,-0.1179,-0.1213,-0.1214,-0.1215,0,0,0,0,0,0,0,0,0,0,0,0,0,-0.1008,-0.0952,-0.1062,-0.1094,-0.1097,-0.1137,-0.1138,-0.1139,-0.1179,-0.1179,-0.1179,-0.1179,-0.1212,-0.1214,-0.1215,-0.1217,0,0,-0.1218,-0.1219,0,0,0,0,0,0,0,0,-0.1005,-0.1012,-0.1088,-0.1092,-0.1096,-0.1149,-0.111,-0.1163,-0.1179,-0.1147,-0.1179,-0.1179,-0.1188,-0.1191,-0.1204,-0.1218,-0.122,-0.1218,-0.1219,-0.1219,-0.122,0,0,0,0,0,0,0,-0.1001,-0.1009,-0.1091,-0.1089,-0.1094,-0.1102,-0.1111,-0.1121,-0.1164,-0.115,-0.1153,-0.1162,-0.119,-0.1203,-0.1205,-0.122,-0.1218,-0.1219,-0.122,-0.122,-0.1248,-0.1248,0,0,0,0,0,0,-0.0994,-0.1006,-0.1089,-0.1094,-0.1051,-0.1104,-0.1114,-0.1131,-0.1165,-0.1171,-0.1162,-0.1164,-0.1201,-0.1204,-0.1207,-0.121,-0.1219,-0.122,-0.1221,-0.1248,-0.1248,-0.1248,0,0,0,0,0,0,-0.0991,-0.1001,-0.1086,-0.1051,-0.1063,-0.1106,-0.1125,-0.1133,-0.1155,-0.1175,-0.118,-0.1178,-0.1202,-0.1205,-0.1223,-0.1212,-0.1221,-0.1222,-0.1248,-0.1248,-0.1248,-0.1218,0,0,0,0,0,0,-0.0988,-0.0999,-0.1006,-0.1051,-0.1065,-0.1112,-0.1126,-0.1134,-0.116,-0.1164,-0.119,-0.1193,-0.1202,-0.1222,-0.1225,-0.1213,-0.1223,-0.1248,-0.1248,-0.1248,-0.1219,-0.1217,-0.1215,0,0,0,0,0,-0.0983,-0.0999,-0.1007,-0.1016,-0.1074,-0.1112,-0.112,-0.115,-0.1161,-0.1171,-0.119,-0.1193,-0.1224,-0.1223,-0.1226,-0.1215,-0.1248,-0.1248,-0.1248,-0.1219,-0.1217,-0.1215,0,0,0,0,0,0,-0.0951,-0.1006,-0.1015,-0.1045,-0.1074,-0.1119,-0.1134,-0.1154,-0.1178,-0.1181,-0.1198,-0.1203,-0.1213,-0.1222,-0.1221,-0.1224,-0.1234,-0.1235,-0.1211,-0.1209,-0.1208,-0.1153,-0.1224,0,0,0,0,0,-0.0947,-0.0975,-0.1018,-0.1039,-0.1056,-0.1094,-0.1112,-0.1134,-0.1163,-0.1175,-0.1187,-0.1202,-0.1215,-0.122,-0.1232,-0.1236,-0.1193,-0.1231,-0.1229,-0.1227,-0.1186,-0.1136,-0.1125,-0.1248,-0.1248,-0.1248,0,0,-0.0937,-0.0972,-0.0985,-0.1034,-0.106,-0.1064,-0.1106,-0.1138,-0.1135,-0.1173,-0.117,-0.1198,-0.1217,-0.1221,-0.1226,-0.1228,-0.1168,-0.1227,-0.1226,-0.1184,-0.1135,-0.1122,-0.1111,-0.1248,-0.1248,-0.1248,0,0,-0.0924,-0.0965,-0.0976,-0.0998,-0.1039,-0.1057,-0.1065,-0.1106,-0.1123,-0.1136,-0.1157,-0.1173,-0.1196,-0.1197,-0.1204,-0.1199,-0.1164,-0.1214,-0.1155,-0.1109,-0.1097,-0.1086,-0.1003,-0.0985,-0.1209,-0.1209,-0.1209,0,-0.0903,-0.0918,-0.0982,-0.099,-0.0979,-0.1046,-0.1021,-0.1062,-0.1098,-0.1074,-0.1129,-0.1125,-0.1174,-0.1138,-0.116,-0.119,-0.1144,-0.1163,-0.1102,-0.1091,-0.108,-0.0998,-0.0978,-0.1208,-0.1208,-0.1208,-0.1208,0,-0.0893,-0.0894,-0.0903,-0.092,-0.0923,-0.0924,-0.0963,-0.0969,-0.0994,-0.1004,-0.0988,-0.1058,-0.1027,-0.1081,-0.1133,-0.1079,-0.1063,-0.1108,-0.11,-0.1065,-0.0982,-0.0961,-0.1206,-0.1206,-0.1207,-0.1207,0,0,-0.0864,-0.0882,-0.0884,-0.083,-0.0874,-0.085,-0.0857,-0.0831,-0.0763,-0.0853,-0.0755,-0.0868,-0.088,-0.0889,-0.0951,-0.0959,-0.0892,-0.1009,-0.1007,-0.0908,-0.0746,-0.0662,-0.0632,-0.0927,-0.0924,-0.0921,-0.0713,0,-0.0818,-0.077,-0.0806,-0.0718,-0.0671,-0.0705,-0.0667,-0.0658,-0.0662,-0.0595,-0.0687,-0.0635,-0.0815,-0.0781,-0.0826,-0.0859,-0.0839,-0.0941,-0.0807,-0.0801,-0.0717,-0.0606,-0.0516,-0.0316,-0.0693,-0.069,-0.0687,0,-0.0798,-0.074,-0.0649,-0.0532,-0.0512,-0.0476,-0.0351,-0.0324,-0.0294,-0.0288,-0.029,-0.0341,-0.0364,-0.0522,-0.0551,-0.0603,-0.066,-0.0716,-0.0709,-0.0615,-0.0679,-0.0416,-0.0265,-0.0375,-0.0656,-0.0659,-0.0661,0,-0.0691,-0.0626,-0.0517,-0.0493,-0.0398,-0.0335,-0.0272,-0.0217,-0.0128,-0.0064,0.0022,-0.0036,-0.0006,-0.0121,-0.029,-0.0391,-0.0296,-0.0434,-0.0396,-0.039,-0.0273,-0.0261,-0.0192,-0.041,-0.0411,-0.0411,-0.0412,0,-0.0613,-0.0518,-0.0452,-0.0377,-0.0197,-0.018,0.0014,0.0054,0.0166,0.0316,0.021,0.0314,0.009,0.0078,-0.0122,-0.0155,-0.0144,-0.0318,-0.0311,-0.0261,-0.0251,-0.0313,-0.043,-0.0403,-0.0405,-0.0407,-0.0408,0,-0.0494,-0.0488,-0.0323,-0.0188,-0.0147,0.0003,0.0187,0.0342,0.0413,0.0608,0.0646,0.064,0.0636,0.0441,0.0319,0.0135,0.0004,0.0028,0.0121,0.0135,0.003,-0.009,-0.0047,-0.0111,0.0129,0.0133,0.0136,0,-0.04,-0.0318,-0.0162,-0.006,0.0006,0.02,0.0339,0.0451,0.0607,0.0799,0.0914,0.0981,0.1008,0.0909,0.0662,0.0479,0.022,0.0424,0.022,0.0113,-0.0017,-0.0198,-0.0272,0.0391,0.0395,0.0399,0.0403,0,-0.0153,-0.0138,-0.0004,0.0169,0.0316,0.0501,0.0689,0.0824,0.0973,0.1097,0.126,0.1304,0.1283,0.1171,0.0976,0.0792,0.0352,0.0501,0.0369,0.0212,0.0046,-0.004,0.0169,0.0438,0.0435,0.0432,0.043,0.0429,0.0056,0.0167,0.0289,0.0448,0.0599,0.0766,0.0892,0.1056,0.1249,0.1401,0.1477,0.1552,0.1529,0.1286,0.1055,0.0785,0.0614,0.0615,0.0493,0.0329,0.023,0.0546,0.0814,0.0812,0.0811,0.081,0.0809,0,0.0345,0.0405,0.057,0.0725,0.0872,0.0899,0.1106,0.1188,0.133,0.1505,0.1597,0.1755,0.1617,0.1412,0.1145,0.0835,0.0562,0.0639,0.0386,0.0315,0.0629,0.06,0.0862,0.0862,0.0862,0.0862,0.0862,0.0863,0.0518,0.0683,0.0703,0.0935,0.1013,0.1159,0.1234,0.1314,0.1427,0.1626,0.177,0.1902,0.1981,0.1364,0.0913,0.0744,0.038,0.0329,0.0126,0.0323,0.0308,0.0294,0.0241,0.0423,0.0423,-0.0164,-0.0169,-0.0173]}],[{"header":{"parameterUnit":"m.s-1","parameterCategory":2,"la1":30.2991,"la2":30.254,"lo1":-89.0895,"lo2":-89.0444,"dy":0.0017,"dx":0.0017,"nx":28,"ny":28,"refTime":"2023-10-22T09:00:00:Z","depth":"2","parameterNumber":2,"parameterNumberName":"U-component_of_CURRENTS"},"data":[0,0,0,0,0,0,0,0,0,0,0,0,0,0,0,0,0,0,0,0,0,0,0,0,0,0,0,0,0,0,0,0,0,0,0,0,0,0,0,0,0,0,0,0,0,0,0,0,0,0,0,0,0,0,0,0,0,0,-0.0102,-0.0102,0,-0.0126,-0.0126,-0.0126,-0.0166,-0.0167,-0.0168,-0.0169,-0.0195,-0.0195,-0.0196,0,0,0,0,0,0,0,0,0,0,0,0,0,-0.0088,-0.0088,-0.0102,-0.0102,-0.0103,-0.0126,-0.0126,-0.0126,-0.0166,-0.0167,-0.0168,-0.0169,-0.0195,-0.0195,-0.0196,0,0,0,0,0,0,0,0,0,0,0,0,0,-0.0102,-0.0088,-0.0102,-0.0125,-0.0127,-0.0126,-0.0126,-0.0127,-0.0166,-0.0167,-0.0168,-0.0169,-0.0195,-0.0195,-0.0196,-0.0176,0,0,-0.0196,-0.0196,0,0,0,0,0,0,0,0,-0.0101,-0.0102,-0.0121,-0.0123,-0.0126,-0.0144,-0.0131,-0.0143,-0.0166,-0.0152,-0.0169,-0.017,-0.0177,-0.0179,-0.0182,-0.0177,-0.0178,-0.0196,-0.0196,-0.0196,-0.0196,0,0,0,0,0,0,0,-0.01,-0.0102,-0.0112,-0.0121,-0.0124,-0.0132,-0.0136,-0.0133,-0.0159,-0.0153,-0.0156,-0.0157,-0.0179,-0.0182,-0.0183,-0.0179,-0.0196,-0.0196,-0.0196,-0.0196,-0.0103,-0.01,0,0,0,0,0,0,-0.0095,-0.0101,-0.0112,-0.0113,-0.0115,-0.0132,-0.0135,-0.0137,-0.0159,-0.0163,-0.0156,-0.0159,-0.0181,-0.0183,-0.0184,-0.0139,-0.0196,-0.0196,-0.0196,-0.0105,-0.0102,-0.0099,0,0,0,0,0,0,-0.0094,-0.0095,-0.0111,-0.0107,-0.0109,-0.0131,-0.0133,-0.0137,-0.0148,-0.0161,-0.0166,-0.0163,-0.0182,-0.0184,-0.0173,-0.0142,-0.0196,-0.0196,-0.0108,-0.0104,-0.0101,-0.0065,0,0,0,0,0,0,-0.0094,-0.0095,-0.0094,-0.0106,-0.0109,-0.0103,-0.0132,-0.0137,-0.0146,-0.015,-0.0168,-0.0171,-0.0183,-0.0173,-0.0173,-0.0143,-0.0196,-0.0111,-0.0106,-0.0102,-0.0069,-0.006,-0.0052,0,0,0,0,0,-0.0093,-0.008,-0.0094,-0.0095,-0.0107,-0.0102,-0.0104,-0.0123,-0.0145,-0.0139,-0.0149,-0.0171,-0.0142,-0.0172,-0.0173,-0.0141,-0.0114,-0.0108,-0.0102,-0.0073,-0.0062,-0.0052,0,0,0,0,0,0,-0.0069,-0.0083,-0.0099,-0.009,-0.0095,-0.0108,-0.0099,-0.0122,-0.0127,-0.0128,-0.0154,-0.0156,-0.0128,-0.0133,-0.0166,-0.0093,-0.0125,-0.0119,-0.0102,-0.0091,-0.0083,-0.0106,-0.0196,0,0,0,0,0,-0.0064,-0.0059,-0.0075,-0.0066,-0.0064,-0.0085,-0.0086,-0.01,-0.0106,-0.0111,-0.0125,-0.0121,-0.0102,-0.0099,-0.0085,-0.0059,-0.0056,-0.003,-0.0022,-0.0015,-0.0029,-0.0014,-0.0007,-0.008,-0.008,-0.008,0,0,-0.0051,-0.0058,-0.0055,-0.006,-0.0063,-0.006,-0.0088,-0.008,-0.0081,-0.011,-0.0107,-0.0096,-0.0086,-0.0051,-0.0038,-0.0057,0.0023,-0.0008,-0.0003,-0.0021,-0.0008,-0.0001,0.0005,-0.0076,-0.0077,-0.0078,0,0,-0.0023,-0.0026,-0.0018,-0.002,-0.0023,-0.0031,-0.0031,-0.0043,-0.0049,-0.0037,-0.0049,-0.0028,-0.0008,0.0002,0.0011,0.0076,0.0067,0.0098,0.0113,0.0129,0.0133,0.0137,0.0204,0.0214,0.0099,0.0099,0.0099,0,-0.001,-0.001,-0.0012,-0.0007,-0.0009,-0.002,-0.0017,-0.0014,-0.0024,-0.0023,-0.0024,0.0012,0.0018,0.005,0.0079,0.009,0.0112,0.0066,0.0135,0.0139,0.0142,0.0209,0.0219,0.0102,0.0101,0.0101,0.0101,0,0.0012,0.0013,0.0026,0.0022,0.0026,0.0035,0.0032,0.0038,0.0035,0.0031,0.0064,0.0078,0.0093,0.0119,0.0115,0.0155,0.0171,0.0142,0.0097,0.0151,0.022,0.0229,0.0105,0.0104,0.0104,0.0103,0,0,0.0035,0.0036,0.0039,0.0036,0.0037,0.0044,0.0059,0.0064,0.007,0.0087,0.0099,0.0144,0.0143,0.0154,0.0161,0.0177,0.0244,0.017,0.017,0.0216,0.032,0.0351,0.0365,0.0218,0.0219,0.0219,0.0377,0,0.0045,0.0055,0.0051,0.0063,0.0068,0.0065,0.0077,0.0086,0.0099,0.0117,0.014,0.0166,0.016,0.0178,0.0192,0.0227,0.0263,0.0207,0.0278,0.0281,0.0283,0.0373,0.0291,0.0425,0.0386,0.0388,0.0389,0,0.006,0.0061,0.0069,0.0073,0.0076,0.0079,0.0094,0.0101,0.0127,0.0141,0.0164,0.0184,0.0228,0.0207,0.0286,0.025,0.0287,0.0313,0.0319,0.0328,0.0328,0.0357,0.0443,0.0405,0.0403,0.0402,0.0401,0,0.0072,0.0076,0.0079,0.008,0.0085,0.0086,0.0086,0.0106,0.0122,0.0152,0.0189,0.022,0.027,0.0292,0.0364,0.0325,0.0457,0.0409,0.0479,0.0484,0.0417,0.0414,0.0455,0.0455,0.0455,0.0454,0.0454,0,0.0083,0.0088,0.0082,0.0085,0.0083,0.0089,0.0095,0.0103,0.0136,0.0181,0.0197,0.0259,0.0289,0.0372,0.0395,0.0495,0.049,0.0503,0.0522,0.0438,0.0435,0.0396,0.0387,0.046,0.0459,0.0458,0.0457,0,0.0096,0.0095,0.0092,0.0089,0.0086,0.0081,0.0088,0.011,0.0142,0.0206,0.0228,0.0316,0.0433,0.0487,0.0569,0.057,0.0633,0.0663,0.0596,0.0602,0.0645,0.0637,0.0756,0.0759,0.0761,0.0762,0.0764,0,0.0105,0.0105,0.0087,0.0084,0.0077,0.0071,0.008,0.0098,0.0135,0.0255,0.0305,0.044,0.0547,0.0695,0.0717,0.0793,0.0751,0.0743,0.0633,0.0668,0.0674,0.0663,0.0652,0.0592,0.0592,0.0592,0.0592,0,0.0113,0.0103,0.0099,0.0086,0.0084,0.0091,0.0112,0.0144,0.0208,0.0283,0.0431,0.0528,0.0685,0.0748,0.0834,0.0826,0.0715,0.0744,0.0801,0.052,0.0523,0.0525,0.0518,0.0591,0.0591,0.0591,0.0591,0.0591,0.0118,0.0108,0.0104,0.0091,0.0101,0.0139,0.0159,0.0219,0.0294,0.0444,0.052,0.0651,0.0703,0.0814,0.0819,0.0775,0.0803,0.0717,0.0713,0.071,0.0654,0.0659,0.0746,0.0747,0.0748,0.0748,0.0749,0,0.0127,0.0124,0.0117,0.012,0.0152,0.0152,0.0211,0.0256,0.0366,0.0501,0.0635,0.064,0.0721,0.0748,0.0711,0.0715,0.0636,0.0648,0.0544,0.0546,0.0548,0.0479,0.0527,0.0527,0.0526,0.0526,0,0,0.0135,0.0137,0.0129,0.0175,0.0194,0.0252,0.0295,0.0367,0.0452,0.0556,0.062,0.0764,0.077,0.0689,0.066,0.061,0.0563,0.0557,0.0733,0.0616,0.0618,0.0585,0.0482,0,0,0,0,0]},{"header":{"parameterUnit":"m.s-1","parameterCategory":2,"la1":30.2991,"la2":30.254,"lo1":-89.0895,"lo2":-89.0444,"dy":0.0017,"dx":0.0017,"nx":28,"ny":28,"refTime":"2023-10-22T09:00:00:Z","depth":"2","parameterNumber":3,"parameterNumberName":"V-component_of_CURRENTS"},"data":[0,0,0,0,0,0,0,0,0,0,0,0,0,0,0,0,0,0,0,0,0,0,0,0,0,0,0,0,0,0,0,0,0,0,0,0,0,0,0,0,0,0,0,0,0,0,0,0,0,0,0,0,0,0,0,0,0,0,-0.0262,-0.0261,0,-0.0205,-0.0204,-0.0204,-0.0155,-0.0155,-0.0154,-0.0153,0.0001,0.0005,0.0008,0,0,0,0,0,0,0,0,0,0,0,0,0,-0.0343,-0.0342,-0.0262,-0.0261,-0.026,-0.0205,-0.0204,-0.0204,-0.0155,-0.0155,-0.0154,-0.0153,-0.0,0.0004,0.0008,0,0,0,0,0,0,0,0,0,0,0,0,0,-0.03,-0.0342,-0.0262,-0.0229,-0.0225,-0.0205,-0.0204,-0.0203,-0.0155,-0.0155,-0.0154,-0.0153,-0.0001,0.0004,0.0009,0.0024,0,0,0.0025,0.0028,0,0,0,0,0,0,0,0,-0.0303,-0.0297,-0.0235,-0.0231,-0.0227,-0.0186,-0.0176,-0.0122,-0.0156,-0.0183,-0.0153,-0.0152,-0.0052,-0.0043,-0.0037,0.0031,0.0037,0.0026,0.0029,0.0031,0.0033,0,0,0,0,0,0,0,-0.0306,-0.03,-0.024,-0.0234,-0.0229,-0.0222,-0.0215,-0.0167,-0.0122,-0.018,-0.0176,-0.0169,-0.005,-0.0042,-0.0032,0.004,0.0026,0.003,0.0034,0.0036,0.0147,0.0147,0,0,0,0,0,0,-0.0311,-0.0302,-0.0242,-0.0238,-0.0263,-0.0221,-0.0213,-0.02,-0.0125,-0.0113,-0.017,-0.0167,-0.0052,-0.0039,-0.0027,0.0019,0.0031,0.0036,0.0039,0.0147,0.0147,0.0146,0,0,0,0,0,0,-0.0313,-0.0306,-0.0244,-0.0269,-0.026,-0.0221,-0.0207,-0.02,-0.018,-0.0118,-0.0104,-0.0156,-0.005,-0.0034,0.0012,0.0024,0.0039,0.0043,0.0147,0.0147,0.0147,0.0095,0,0,0,0,0,0,-0.0316,-0.0307,-0.0298,-0.0269,-0.0259,-0.0222,-0.0207,-0.0199,-0.0177,-0.0172,-0.0101,-0.0087,-0.0048,0.0003,0.0017,0.0032,0.0048,0.0148,0.0147,0.0147,0.0097,0.0093,0.0089,0,0,0,0,0,-0.0319,-0.0297,-0.0297,-0.029,-0.0248,-0.0221,-0.0215,-0.0185,-0.0177,-0.0165,-0.0131,-0.0088,0.0011,0.0007,0.0023,0.004,0.0148,0.0147,0.0147,0.0099,0.0094,0.0089,0,0,0,0,0,0,-0.0317,-0.0289,-0.0289,-0.0258,-0.0242,-0.0212,-0.0196,-0.0184,-0.015,-0.0143,-0.0091,-0.0075,-0.0029,0.0007,0.0002,0.0069,0.0087,0.0089,0.0045,0.0041,0.0037,0.0008,0.0052,0,0,0,0,0,-0.0318,-0.03,-0.0278,-0.0256,-0.0249,-0.0227,-0.0213,-0.0196,-0.0165,-0.0149,-0.0102,-0.0057,-0.0022,0.001,0.0052,0.009,0.008,0.0111,0.0107,0.0103,0.0089,0.0047,0.0037,0.0145,0.0145,0.0145,0,0,-0.031,-0.0295,-0.0283,-0.0256,-0.0243,-0.0227,-0.0215,-0.0191,-0.0179,-0.0136,-0.0096,-0.0064,-0.0016,0.0021,0.0046,0.0057,0.0073,0.0103,0.0099,0.0087,0.0045,0.0034,0.0024,0.0144,0.0144,0.0144,0,0,-0.0291,-0.0277,-0.0259,-0.0248,-0.0228,-0.0219,-0.0213,-0.0182,-0.0169,-0.014,-0.0111,-0.009,-0.0012,0.0006,0.0027,0.0026,0.0051,0.006,0.0025,-0.0017,-0.0027,-0.0035,-0.0046,-0.0056,0.0061,0.0061,0.0061,0,-0.0284,-0.0264,-0.025,-0.0234,-0.0229,-0.0216,-0.0205,-0.019,-0.0149,-0.0152,-0.0128,-0.0078,-0.003,-0.0018,-0.0014,0.0016,0.0007,0.0039,-0.0025,-0.0034,-0.0042,-0.0051,-0.0061,0.0058,0.0059,0.0059,0.0059,0,-0.0256,-0.0244,-0.0232,-0.0217,-0.0207,-0.0195,-0.0182,-0.0172,-0.0162,-0.0157,-0.0145,-0.0108,-0.0092,-0.006,-0.003,-0.0055,-0.0037,-0.003,-0.002,-0.0057,-0.0062,-0.0072,0.0055,0.0056,0.0056,0.0057,0,0,-0.0238,-0.0219,-0.0216,-0.0226,-0.0203,-0.02,-0.0187,-0.0191,-0.0204,-0.0176,-0.0196,-0.0151,-0.0158,-0.0138,-0.0106,-0.0122,-0.0175,-0.0098,-0.0098,-0.0119,-0.0249,-0.0232,-0.0241,-0.0183,-0.0185,-0.0187,-0.0224,0,-0.0228,-0.0217,-0.0202,-0.0202,-0.0204,-0.02,-0.0198,-0.02,-0.0201,-0.0212,-0.021,-0.0206,-0.018,-0.0176,-0.0199,-0.0172,-0.0205,-0.0164,-0.02,-0.02,-0.0193,-0.0254,-0.0246,-0.0279,-0.0233,-0.0234,-0.0236,0,-0.0213,-0.0214,-0.0218,-0.0231,-0.0231,-0.0234,-0.0263,-0.0257,-0.0273,-0.0272,-0.0295,-0.0282,-0.0298,-0.0275,-0.0306,-0.028,-0.0283,-0.0267,-0.0268,-0.0247,-0.0204,-0.0236,-0.0298,-0.0251,-0.025,-0.0249,-0.0248,0,-0.0244,-0.023,-0.0249,-0.0249,-0.0252,-0.0272,-0.028,-0.0293,-0.028,-0.0327,-0.0312,-0.0361,-0.035,-0.0391,-0.0358,-0.0342,-0.0384,-0.0364,-0.036,-0.0357,-0.0355,-0.0349,-0.0426,-0.0426,-0.0426,-0.0426,-0.0426,0,-0.0253,-0.0269,-0.0276,-0.0291,-0.0314,-0.0318,-0.0337,-0.0352,-0.0348,-0.032,-0.036,-0.0335,-0.0377,-0.0384,-0.0394,-0.0404,-0.0432,-0.0388,-0.0382,-0.0368,-0.0363,-0.0341,-0.033,-0.0427,-0.0427,-0.0426,-0.0426,0,-0.0289,-0.029,-0.0312,-0.0329,-0.0332,-0.0359,-0.0335,-0.033,-0.0345,-0.0308,-0.0313,-0.0316,-0.0337,-0.0371,-0.0409,-0.0423,-0.0451,-0.0451,-0.0415,-0.0406,-0.0386,-0.0377,-0.0468,-0.0469,-0.0469,-0.0469,-0.0469,0,-0.0308,-0.033,-0.0338,-0.033,-0.0341,-0.0356,-0.0337,-0.0338,-0.0304,-0.0268,-0.0236,-0.0255,-0.0236,-0.031,-0.0374,-0.044,-0.0442,-0.0467,-0.0451,-0.0414,-0.0398,-0.039,-0.0381,-0.0457,-0.0457,-0.0457,-0.0457,0,-0.0345,-0.0354,-0.0357,-0.0335,-0.0326,-0.0292,-0.027,-0.0237,-0.0206,-0.0164,-0.0103,-0.0097,-0.0168,-0.0234,-0.0347,-0.0392,-0.0465,-0.0467,-0.0471,-0.0441,-0.0405,-0.0389,-0.0381,-0.0457,-0.0457,-0.0457,-0.0457,-0.0457,-0.0366,-0.0361,-0.0347,-0.0323,-0.0285,-0.0223,-0.018,-0.0127,-0.0062,0.0028,0.0012,0.0042,-0.0086,-0.0209,-0.031,-0.0426,-0.0433,-0.0465,-0.0464,-0.0464,-0.045,-0.0416,-0.0466,-0.0466,-0.0466,-0.0466,-0.0466,0,-0.0373,-0.0346,-0.032,-0.0269,-0.02,-0.0184,-0.0106,-0.0049,0.0052,0.0118,0.0177,0.0092,-0.0008,-0.0145,-0.0306,-0.0409,-0.042,-0.0442,-0.0434,-0.0435,-0.0436,-0.0419,-0.0427,-0.0427,-0.0427,-0.0426,0,0,-0.0372,-0.0334,-0.0305,-0.0193,-0.0134,-0.0024,0.0036,0.0103,0.0158,0.0234,0.0267,0.0246,0.0048,-0.0051,-0.0222,-0.0311,-0.0338,-0.033,-0.0358,-0.0332,-0.0329,-0.0456,-0.0434,0,0,0,0,0]}],[{"header":{"parameterUnit":"m.s-1","parameterCategory":2,"la1":30.2991,"la2":30.254,"lo1":-89.0895,"lo2":-89.0444,"dy":0.0017,"dx":0.0017,"nx":28,"ny":28,"refTime":"2023-10-22T09:00:00:Z","depth":"4","parameterNumber":2,"parameterNumberName":"U-component_of_CURRENTS"},"data":[0,0,0,0,0,0,0,0,0,0,0,0,0,0,0,0,0,0,0,0,0,0,0,0,0,0,0,0,0,0,0,0,0,0,0,0,0,0,0,0,0,0,0,0,0,0,0,0,0,0,0,0,0,0,0,0,0,0,-0.0046,-0.0046,0,-0.0054,-0.0055,-0.0055,-0.0056,-0.0055,-0.0055,-0.0055,-0.008,-0.0081,-0.0082,0,0,0,0,0,0,0,0,0,0,0,0,0,-0.0042,-0.0042,-0.0046,-0.0046,-0.0046,-0.0054,-0.0055,-0.0055,-0.0056,-0.0055,-0.0055,-0.0055,-0.008,-0.0081,-0.0082,0,0,0,0,0,0,0,0,0,0,0,0,0,-0.0048,-0.0042,-0.0046,-0.0046,-0.0046,-0.0054,-0.0055,-0.0055,-0.0056,-0.0055,-0.0055,-0.0054,-0.0079,-0.0081,-0.0082,-0.0099,0,0,-0.0086,-0.0087,0,0,0,0,0,0,0,0,-0.0048,-0.0049,-0.0046,-0.0046,-0.0046,-0.0052,-0.0062,-0.007,-0.0056,-0.0054,-0.0055,-0.0054,-0.0071,-0.0073,-0.0078,-0.0101,-0.0102,-0.0087,-0.0087,-0.0088,-0.0088,0,0,0,0,0,0,0,-0.0048,-0.0049,-0.0052,-0.0046,-0.0046,-0.0049,-0.0049,-0.0064,-0.0067,-0.0054,-0.0054,-0.0051,-0.0071,-0.0077,-0.0079,-0.0102,-0.0087,-0.0088,-0.0089,-0.0089,-0.0128,-0.0128,0,0,0,0,0,0,-0.0042,-0.0048,-0.0051,-0.0052,-0.0043,-0.0049,-0.005,-0.0052,-0.0066,-0.0067,-0.0052,-0.0051,-0.0075,-0.0077,-0.008,-0.0086,-0.0088,-0.0089,-0.009,-0.0127,-0.0128,-0.0128,0,0,0,0,0,0,-0.0042,-0.0043,-0.0051,-0.0048,-0.0049,-0.0049,-0.0052,-0.0052,-0.0055,-0.0064,-0.0066,-0.0053,-0.0075,-0.0078,-0.0092,-0.0087,-0.009,-0.0091,-0.0127,-0.0127,-0.0128,-0.0107,0,0,0,0,0,0,-0.0042,-0.0043,-0.0046,-0.0048,-0.0049,-0.0051,-0.0052,-0.0053,-0.0053,-0.0053,-0.0066,-0.0068,-0.0075,-0.009,-0.0093,-0.0089,-0.0092,-0.0127,-0.0127,-0.0128,-0.0108,-0.0107,-0.0106,0,0,0,0,0,-0.0042,-0.0044,-0.0046,-0.0047,-0.0052,-0.0051,-0.0052,-0.0052,-0.0054,-0.0054,-0.0065,-0.0067,-0.0094,-0.0091,-0.0096,-0.0091,-0.0127,-0.0127,-0.0128,-0.0108,-0.0107,-0.0106,0,0,0,0,0,0,-0.0042,-0.0044,-0.0047,-0.0049,-0.0048,-0.005,-0.0052,-0.0053,-0.0062,-0.0063,-0.0074,-0.0077,-0.0084,-0.0096,-0.0092,-0.0104,-0.0109,-0.0111,-0.0093,-0.0092,-0.0091,-0.0076,-0.0094,0,0,0,0,0,-0.0044,-0.0048,-0.0048,-0.005,-0.005,-0.0052,-0.0053,-0.0051,-0.0057,-0.0061,-0.0066,-0.0078,-0.009,-0.0097,-0.0106,-0.0119,-0.0112,-0.0118,-0.0118,-0.0117,-0.0108,-0.0093,-0.0089,-0.0129,-0.0129,-0.0129,0,0,-0.0045,-0.0046,-0.0049,-0.005,-0.0052,-0.0052,-0.0052,-0.005,-0.0049,-0.0063,-0.0065,-0.0074,-0.0093,-0.01,-0.0105,-0.0109,-0.0103,-0.0117,-0.0116,-0.0108,-0.0092,-0.0088,-0.0085,-0.0129,-0.0129,-0.0129,0,0,-0.0046,-0.005,-0.0053,-0.0052,-0.005,-0.005,-0.0049,-0.0046,-0.0046,-0.0051,-0.0059,-0.0064,-0.0083,-0.009,-0.01,-0.0103,-0.0096,-0.0107,-0.0093,-0.0079,-0.0075,-0.0071,-0.0058,-0.0054,-0.0109,-0.0109,-0.0109,0,-0.0047,-0.0051,-0.0053,-0.0053,-0.0051,-0.0049,-0.0048,-0.0049,-0.0049,-0.0047,-0.0048,-0.0064,-0.0077,-0.0089,-0.0086,-0.0099,-0.0089,-0.0095,-0.0075,-0.0072,-0.0068,-0.0056,-0.0052,-0.0108,-0.0109,-0.0109,-0.0109,0,-0.005,-0.0052,-0.0052,-0.0054,-0.0051,-0.0048,-0.0045,-0.004,-0.0038,-0.0036,-0.0036,-0.005,-0.0055,-0.0064,-0.0077,-0.0065,-0.0064,-0.0072,-0.0074,-0.0063,-0.0051,-0.0047,-0.0107,-0.0107,-0.0108,-0.0108,0,0,-0.0054,-0.0055,-0.0055,-0.0051,-0.005,-0.0044,-0.0043,-0.0038,-0.0029,-0.0028,-0.0019,-0.0036,-0.0029,-0.0039,-0.0051,-0.0044,-0.0014,-0.0044,-0.0044,-0.0024,0.0024,0.0048,0.0055,-0.0014,-0.0013,-0.0012,0.0022,0,-0.0056,-0.0052,-0.0055,-0.0048,-0.0044,-0.0041,-0.0037,-0.003,-0.0024,-0.0012,-0.0019,-0.0014,-0.0025,-0.0022,-0.0014,-0.0016,-0.0,-0.0022,0.0004,0.0004,0.0031,0.0062,-0.0009,0.0026,0.0027,0.0028,0.0028,0,-0.006,-0.0054,-0.0048,-0.0037,-0.0035,-0.0028,-0.0013,-0.0008,0.0002,0.0008,0.0015,0.0016,0.0023,0.0016,0.0034,0.0023,0.0034,0.0033,0.0034,0.0055,0.0038,0.0012,0.0037,0.0036,0.0035,0.0035,0.0034,0,-0.0054,-0.0049,-0.0041,-0.0037,-0.0026,-0.0017,-0.001,0.0002,0.0013,0.0029,0.0045,0.0048,0.0061,0.0069,0.0075,0.0061,0.0101,0.0077,0.0108,0.0109,0.0067,0.0063,0.0106,0.0106,0.0106,0.0106,0.0106,0,-0.0055,-0.0047,-0.0033,-0.0024,-0.0005,-0.0002,0.0019,0.0027,0.0043,0.0068,0.0065,0.0092,0.008,0.0099,0.0094,0.0125,0.0121,0.0127,0.0127,0.0073,0.0069,0.007,0.0066,0.0108,0.0107,0.0107,0.0107,0,-0.0053,-0.0047,-0.003,-0.0009,-0.0001,0.0017,0.004,0.0057,0.0071,0.0106,0.0116,0.0135,0.0167,0.0157,0.0171,0.0161,0.0174,0.0186,0.0139,0.0133,0.0164,0.016,0.0222,0.0224,0.0225,0.0226,0.0226,0,-0.0054,-0.0043,-0.0012,0.0006,0.0017,0.0041,0.0059,0.0073,0.0096,0.0141,0.0165,0.0202,0.0216,0.0252,0.0238,0.0237,0.0233,0.023,0.0191,0.0186,0.018,0.0174,0.0168,0.0228,0.0228,0.0229,0.0229,0,-0.0049,-0.0034,-0.0016,0.0022,0.0048,0.0076,0.0107,0.0125,0.0153,0.0163,0.0221,0.0239,0.028,0.0281,0.0287,0.0281,0.0221,0.0241,0.0238,0.0202,0.0194,0.0185,0.0179,0.0233,0.0232,0.0232,0.0232,0,-0.0042,-0.0027,0.0003,0.0038,0.0071,0.0113,0.0124,0.0164,0.0187,0.0228,0.0254,0.0286,0.0298,0.0308,0.0314,0.0312,0.03,0.0272,0.0267,0.0262,0.0258,0.0252,0.0327,0,0,0,0,0,-0.0041,-0.0018,0.0018,0.0061,0.0096,0.012,0.0158,0.0169,0.0195,0.0239,0.0245,0.0285,0.031,0.0323,0.0327,0.0327,0.0293,0.033,0.0256,0.0254,0.025,0.0239,0,0,0,0,0,0,-0.0037,-0.001,0.0017,0.0076,0.011,0.0153,0.0179,0.0199,0.0224,0.0246,0.0262,0.0272,0.0297,0.0307,0.0323,0.0325,0.0275,0.0342,0.0341,0.0257,0.0253,0.0249,0.0237,0,0,0,0,0]},{"header":{"parameterUnit":"m.s-1","parameterCategory":2,"la1":30.2991,"la2":30.254,"lo1":-89.0895,"lo2":-89.0444,"dy":0.0017,"dx":0.0017,"nx":28,"ny":28,"refTime":"2023-10-22T09:00:00:Z","depth":"4","parameterNumber":3,"parameterNumberName":"V-component_of_CURRENTS"},"data":[0,0,0,0,0,0,0,0,0,0,0,0,0,0,0,0,0,0,0,0,0,0,0,0,0,0,0,0,0,0,0,0,0,0,0,0,0,0,0,0,0,0,0,0,0,0,0,0,0,0,0,0,0,0,0,0,0,0,-0.0186,-0.0186,0,-0.0194,-0.0194,-0.0194,-0.0202,-0.0202,-0.0202,-0.0202,-0.0203,-0.0203,-0.0203,0,0,0,0,0,0,0,0,0,0,0,0,0,-0.0179,-0.0179,-0.0186,-0.0186,-0.0186,-0.0194,-0.0194,-0.0194,-0.0202,-0.0202,-0.0202,-0.0202,-0.0203,-0.0203,-0.0203,0,0,0,0,0,0,0,0,0,0,0,0,0,-0.0184,-0.0179,-0.0186,-0.0191,-0.0192,-0.0194,-0.0194,-0.0194,-0.0202,-0.0202,-0.0202,-0.0202,-0.0203,-0.0203,-0.0203,-0.0197,0,0,-0.0202,-0.0202,0,0,0,0,0,0,0,0,-0.0183,-0.0184,-0.0191,-0.0191,-0.0192,-0.0198,-0.0192,-0.0195,-0.0202,-0.0197,-0.0202,-0.0202,-0.0201,-0.0201,-0.0201,-0.0197,-0.0197,-0.0202,-0.0202,-0.0202,-0.0202,0,0,0,0,0,0,0,-0.0183,-0.0183,-0.0189,-0.0191,-0.0191,-0.0194,-0.0195,-0.0193,-0.0197,-0.0198,-0.0199,-0.02,-0.0201,-0.0201,-0.0201,-0.0197,-0.0202,-0.0202,-0.0202,-0.0202,-0.0191,-0.0191,0,0,0,0,0,0,-0.0183,-0.0183,-0.0188,-0.0189,-0.0189,-0.0194,-0.0195,-0.0195,-0.0197,-0.0198,-0.02,-0.0201,-0.0201,-0.0201,-0.0201,-0.0193,-0.0202,-0.0202,-0.0202,-0.0191,-0.0191,-0.0191,0,0,0,0,0,0,-0.0183,-0.0183,-0.0188,-0.0187,-0.0188,-0.0194,-0.0194,-0.0195,-0.0199,-0.0199,-0.02,-0.0203,-0.0202,-0.0201,-0.0196,-0.0193,-0.0202,-0.0201,-0.0191,-0.0191,-0.0191,-0.0178,0,0,0,0,0,0,-0.0182,-0.0183,-0.0184,-0.0187,-0.0188,-0.0189,-0.0194,-0.0195,-0.02,-0.0201,-0.0202,-0.0202,-0.0202,-0.0196,-0.0195,-0.0193,-0.0201,-0.0192,-0.0191,-0.0191,-0.0179,-0.0178,-0.0177,0,0,0,0,0,-0.0182,-0.018,-0.0184,-0.0185,-0.0189,-0.0189,-0.0189,-0.0194,-0.02,-0.0199,-0.0198,-0.0202,-0.0194,-0.0195,-0.0195,-0.0193,-0.0192,-0.0191,-0.0191,-0.018,-0.0178,-0.0177,0,0,0,0,0,0,-0.0182,-0.0181,-0.0185,-0.0185,-0.0188,-0.019,-0.019,-0.0196,-0.0195,-0.0195,-0.0197,-0.0197,-0.0193,-0.0194,-0.0195,-0.0189,-0.0195,-0.0194,-0.0186,-0.0185,-0.0184,-0.0171,-0.0201,0,0,0,0,0,-0.0182,-0.0178,-0.0181,-0.0182,-0.0181,-0.0187,-0.0189,-0.0192,-0.0192,-0.0192,-0.0194,-0.0194,-0.019,-0.0188,-0.0187,-0.018,-0.0185,-0.018,-0.0179,-0.0178,-0.0167,-0.0159,-0.0156,-0.0189,-0.0189,-0.0189,0,0,-0.0184,-0.0182,-0.0182,-0.0182,-0.0183,-0.0175,-0.0188,-0.0188,-0.0183,-0.0192,-0.0186,-0.0191,-0.0188,-0.0182,-0.018,-0.0182,-0.0177,-0.0177,-0.0176,-0.0166,-0.0159,-0.0155,-0.0152,-0.0189,-0.0189,-0.0189,0,0,-0.0173,-0.0182,-0.0169,-0.0168,-0.0168,-0.0172,-0.0172,-0.0175,-0.0177,-0.0174,-0.0178,-0.0178,-0.0177,-0.0171,-0.0169,-0.0159,-0.0172,-0.0166,-0.0146,-0.0139,-0.0136,-0.0134,-0.0161,-0.0161,-0.0163,-0.0163,-0.0163,0,-0.0176,-0.0157,-0.0167,-0.0152,-0.015,-0.0168,-0.0153,-0.0158,-0.0161,-0.0159,-0.017,-0.0166,-0.0169,-0.0152,-0.015,-0.0156,-0.0165,-0.0152,-0.0137,-0.0134,-0.0132,-0.016,-0.016,-0.0162,-0.0163,-0.0163,-0.0163,0,-0.0145,-0.0137,-0.0129,-0.0116,-0.0118,-0.011,-0.0118,-0.0122,-0.0133,-0.0136,-0.0132,-0.0137,-0.0136,-0.0139,-0.0141,-0.0125,-0.0144,-0.0139,-0.014,-0.0128,-0.0159,-0.0159,-0.0162,-0.0162,-0.0162,-0.0162,0,0,-0.013,-0.011,-0.0107,-0.01,-0.0097,-0.0099,-0.0092,-0.0088,-0.0092,-0.0096,-0.0096,-0.0087,-0.0101,-0.0099,-0.0107,-0.0097,-0.01,-0.0108,-0.0108,-0.0134,-0.011,-0.0113,-0.0114,-0.0091,-0.009,-0.009,-0.0148,0,-0.01,-0.0068,-0.0065,-0.0048,-0.0035,-0.005,-0.0048,-0.0053,-0.0067,-0.0077,-0.0078,-0.009,-0.0083,-0.0098,-0.008,-0.0104,-0.0095,-0.0086,-0.0118,-0.0119,-0.0122,-0.0111,-0.0087,-0.0149,-0.0149,-0.0149,-0.0149,0,-0.0056,-0.0047,-0.002,-0.0018,-0.0014,-0.0015,-0.0026,-0.0027,-0.0042,-0.0054,-0.0055,-0.0073,-0.0074,-0.0074,-0.0078,-0.0074,-0.0083,-0.0092,-0.0095,-0.0096,-0.0121,-0.0157,-0.0149,-0.0149,-0.0149,-0.0149,-0.0149,0,-0.0035,-0.0011,0.0006,0.0008,0.0005,0.0003,-0.0007,-0.0021,-0.0029,-0.0054,-0.007,-0.0068,-0.0091,-0.0083,-0.0106,-0.0096,-0.0118,-0.0111,-0.0118,-0.0121,-0.0107,-0.0109,-0.0093,-0.0093,-0.0093,-0.0093,-0.0093,0,0.0001,0.001,0.0011,0.0012,0.0009,0.0006,-0.0005,-0.0019,-0.0035,-0.0045,-0.0065,-0.0075,-0.009,-0.0108,-0.0113,-0.0126,-0.0125,-0.0111,-0.0125,-0.0106,-0.0107,-0.011,-0.0111,-0.0095,-0.0095,-0.0094,-0.0094,0,0.0006,0.0023,0.0026,0.0019,0.0016,-0.0,-0.0019,-0.0026,-0.0043,-0.006,-0.0073,-0.0095,-0.0118,-0.0137,-0.0152,-0.0147,-0.0157,-0.0157,-0.0165,-0.018,-0.0168,-0.0168,-0.0174,-0.0174,-0.0174,-0.0175,-0.0175,0,0.0005,0.0012,0.0007,0.0001,-0.001,-0.0025,-0.0033,-0.0041,-0.0046,-0.0064,-0.0071,-0.0103,-0.0115,-0.0145,-0.0162,-0.0188,-0.0171,-0.0195,-0.014,-0.0158,-0.0171,-0.017,-0.0169,-0.0175,-0.0175,-0.0175,-0.0175,0,-0.0026,-0.0024,-0.0029,-0.0031,-0.004,-0.0044,-0.0053,-0.0052,-0.0053,-0.0065,-0.0062,-0.008,-0.0108,-0.0132,-0.0164,-0.017,-0.0191,-0.0198,-0.0196,-0.0144,-0.016,-0.0172,-0.0171,-0.0176,-0.0176,-0.0176,-0.0176,0,-0.0071,-0.0075,-0.0068,-0.0073,-0.0073,-0.0061,-0.0061,-0.005,-0.0049,-0.0049,-0.0048,-0.0073,-0.0091,-0.0123,-0.0147,-0.0168,-0.0153,-0.0146,-0.0147,-0.0146,-0.011,-0.0124,-0.0135,0,0,0,0,0,-0.0118,-0.0104,-0.0107,-0.0093,-0.0087,-0.0082,-0.007,-0.0061,-0.0051,-0.004,-0.0037,-0.0054,-0.0083,-0.0104,-0.012,-0.0156,-0.0171,-0.0177,-0.0166,-0.0182,-0.0181,-0.0141,0,0,0,0,0,0,-0.0145,-0.014,-0.0114,-0.0108,-0.0099,-0.0085,-0.0075,-0.0064,-0.0049,-0.0042,-0.0054,-0.0058,-0.0089,-0.0073,-0.0121,-0.013,-0.0125,-0.0194,-0.0194,-0.0183,-0.0182,-0.0181,-0.014,0,0,0,0,0]}]]